User: anonymous   Login
Location: Fiddletown
(38.4917°N, 120.6633°W)
Time: 17:14:52
(UTC-07:00)
Language:

Envisat - Orbit

View from above orbital plane
View from above orbital plane
View from above satellite
View from above satellite

Ground track
Ground track

The orbit data is extracted from the following two-line orbital elements,

1 27386U 02009A   15089.31030976  .00000102  00000-0  48048-4 0  9990
2 27386 098.3427 152.0702 0000981 079.6220 280.5080 14.37798970684693
Epoch (UTC): 30 March 2015 07:26:50
Eccentricity: 0.0000981
inclination: 98.3427°
perigee height: 765 km
apogee height: 766 km
right ascension of ascending node: 152.0702°
argument of perigee: 79.6220°
revolutions per day: 14.37798970
mean anomaly at epoch: 280.5080°
orbit number at epoch: 68469

The dashed part of the orbit path shows where the satellite is in the earth's shadow,  

DLR